Regional Weather Roundup
Issued by NWS

Home | Current Version | Previous Version | Text Only | Print | Product List | Glossary Off
Versions: 1 2 3 4 5 6 7 8 9 10 11 12 13 14 15 16 17 18 19 20 21 22 23 24 25 26 27 28 29 30 31 32 33 34 35 36 37 38 39 40 41 42 43 44 45 46 47 48 49 50

000
ASUS43 KTOP 230059
RWRKS

WEATHER ROUNDUP FOR KANSAS
NATIONAL WEATHER SERVICE GOODLAND KS
800 PM CDT SUN OCT 22 2017

NOTE:  "FAIR" INDICATES FEW OR NO CLOUDS BELOW 12,000 FEET WITH NO
SIGNIFICANT WEATHER AND/OR OBSTRUCTIONS TO VISIBILITY.

KSZ001>006-013>018-027>032-041>047-230200-
NORTHWEST KANSAS

CITY           SKY/WX    TMP DP  RH WIND       PRES   REMARKS
GOODLAND       CLOUDY    60  23  24 SW9       30.05S
HAYS           CLOUDY    53  29  39 S8        30.05F
HILL CITY      CLOUDY    59  27  29 SW7       30.04S
RUSSELL        CLOUDY    53  32  44 S10       30.04S
$$

KSZ061>065-074>080-084>089-230200-
SOUTHWEST KANSAS

CITY           SKY/WX    TMP DP  RH WIND       PRES   REMARKS
DODGE CITY     CLEAR     56  23  27 S7        30.08S
ELKHART          N/A     60  29  30 S9          N/A
GARDEN CITY    CLOUDY    56  25  30 S6        30.07S
GREAT BEND     CLEAR     53  32  44 S7        30.07S
LIBERAL        CLEAR     53  30  41 S10       30.10F
$$

KSZ066>073-081>083-090>101-230200-
SOUTHEAST KANSAS

CITY           SKY/WX    TMP DP  RH WIND       PRES   REMARKS
CHANUTE        CLEAR     50  43  77 CALM      30.11S
COFFEYVILLE    CLEAR     52  46  80 CALM      30.11S
HUTCHINSON     CLEAR     47  37  68 E5        30.08S
MEDICINE LODGE   N/A     61  25  25 S5        30.09S
NEWTON         CLEAR     57  32  38 S6        30.11R
PARSONS        CLEAR     49  45  86 CALM      30.12S
WICHITA INTL   PTCLDY    56  42  59 S8        30.10R
WICHITA JABRA  CLEAR     56  41  57 S6        30.10S
WICHITA MCCONL CLEAR     56  39  53 S6        30.10S
WINFIELD       CLEAR     57  43  59 S5        30.11F
$$

KSZ007>012-019>026-033>040-048>060-102>105-230200-
NORTHEAST KANSAS

CITY           SKY/WX    TMP DP  RH WIND       PRES   REMARKS
CONCORDIA      CLEAR     54  31  41 S10       30.04F
EMPORIA        CLEAR     52  37  56 S8        30.09S
LAWRENCE       CLEAR     48  45  89 NE3       30.09S
MANHATTAN      CLEAR     49  39  68 CALM      30.07S
OLATHE IND     CLEAR     54  40  59 SE5       30.10S
OLATHE EXE     CLEAR     51  41  68 CALM      30.10S
SALINA         CLEAR     56  37  49 SE5       30.07S
TOPEKA BILLARD CLEAR     53  43  68 CALM      30.08S
TOPEKA FORBES  CLEAR     52  46  80 CALM      30.08S
$$




USA.gov is the U.S. government's official web portal to all federal, state and local government web resources and services.